Starlink 30449

operational
NORAD ID: 57903 Int'l Des: 2023-146 Owner: SPXS Country: US Constellation: starlink
LEOCIRCULAR

Starlink 30449について

説明を読み込み中...

リアルタイム位置

3D地球を読み込み中...

次回通過

高度履歴

Altitude vs Time

uPlot chart will show altitude changes over time

軌道要素

1 57903U 23146N 26035.52651325 .00001504 00000-0 12637-3 0 9997
2 57903 42.9997 133.0245 0000892 249.8645 110.2102 15.02527867131028
Epoch: Feb 4, 2026 • Age: 19 hours

現在のステータス

高度 565.5 km
速度 7.58 km/s
衛星直下点 -26.43°S, 152.79°W
打ち上げ日 Sep 20, 2023
運用期間 2.3 years
タイプ internet

技術仕様

分類 Payload
質量 730.00 kg
乾燥質量 700.00 kg
総質量 730.00 kg
長さ 0.30 m
直径 4.10 m
スパン 29.00 m
形状 Box + pan
製造者 SPXS
バスタイプ Starlink V2M
フェーズステータス In Orbit
所有者/国 SPXS/US

大規模コンステレーション

Loading constellations...